Meteopurmerend
purmerend
Purmerend - Baaienwijk



My webcam  My webcam


Onweer radar Meer informatie blitzortung!


waarschuwing voor winterse neerslag Meer informatie rain snow radar


Bezoek onze andere website:

CandyAppleRed WebdesignWebdesign Purmerend Candy Apple Red

MeteopurmerendBlog

Template documentation
and downloads



Sneeuw/IJzel/Bevriezing van: 28-02-2020 05:00 tot: 09:00 waarschuwing voor: Sneeuw/IJzel/Bevriezing niveau: Geel info button
Kans op lokale gladheid door bevriezing van natte weggedeelten.Kans op gladheid.Alle verkeersdeelnemers kunnen hinder ondervinden.Pas uw rijgedrag aan.Volg weerberichten en waarschuwingen.

15 daagse weersverwachting Brest (FR)

  • Overzicht
  • Per uur
  • 15 dagen
  • Extra
  • Vergelijk
  • Kaarten
  • Dagkaart
  • Meer »
  • Info
  • Statistieken
  • Directe link
    Temp 6h Neerslag Wind  
 08:02     18:59    Daglengte: 10:57 Vandaag
13:00
12°
8.8 mm
9
19:00
11°
 
10
 08:00     19:01    Daglengte: 11:01 Morgen
01:00
11°
 
14
07:00
28.8 mm
7
13:00
10.6 mm
11
19:00
19.9 mm
12
 07:58     19:02    Daglengte: 11:04 Zondag 01 Maa
01:00
15.8 mm
10
07:00
33.9 mm
8
13:00
34.8 mm
8
19:00
35.3 mm
7
 07:56     19:04    Daglengte: 11:08 Maandag 02 Maa
01:00
29.6 mm
4
Locatie info
Region: Bretagne
Latitude: 48.3904°N
Longitude: -4.4866°E
59 masl
Postcode: 29200
Temp/Neerslag /Baro Onweer/Dauwpunt
    Temp Baro 1h Neerslag Dauwpunt Wind UV Bewolking  
 08:02     18:59    Daglengte: 10:57 Vandaag
08:00
11°
1010.2 hPa 2.3 mm
48%
9.6°
8
Windvlaag: 5.6 m/s
91%
09:00
11°
1010.1 hPa 1.3 mm
82%
9.9°
9
Windvlaag: 6.3 m/s
91%
10:00
11°
1009.9 hPa 1.4 mm
82%
9.8°
9
Windvlaag: 6.5 m/s
89%
11:00
11°
1009.6 hPa 1.6 mm
77%
10.1°
9
Windvlaag: 4.8 m/s
91%
12:00
11°
1009.1 hPa 1.1 mm
76%
10.3°
9
Windvlaag: 6.1 m/s
89%
13:00
12°
1008.7 hPa 1.1 mm
72%
10.4°
9
Windvlaag: 6.2 m/s
91%
14:00
12°
1007.7 hPa
78%
10.2°
9
Windvlaag: 6 m/s
86%
15:00
12°
1006.6 hPa
59%
10.0°
9
Windvlaag: 6.4 m/s
84%
16:00
12°
1005.8 hPa
15%
9.9°
9
Windvlaag: 6.5 m/s
89%
17:00
11°
1004.9 hPa
22%
9.5°
10
Windvlaag: 7 m/s
88%
18:00
11°
1003.8 hPa
20%
9.4°
10
Windvlaag: 7.8 m/s
88%
19:00
11°
1003.0 hPa
17%
9.5°
10
Windvlaag: 7.9 m/s
90%
20:00
11°
1002.2 hPa
68%
9.4°
11
Windvlaag: 8 m/s
90%
21:00
11°
1001.1 hPa
65%
9.3°
11
Windvlaag: 8.7 m/s
88%
22:00
11°
999.8 hPa
24%
9.1°
12
Windvlaag: 9 m/s
81%
23:00
11°
998.5 hPa
63%
9.0°
12
Windvlaag: 9.6 m/s
86%
 08:00     19:01    Daglengte: 11:01 Morgen
00:00
11°
996.8 hPa
67%
8.7°
13
Windvlaag: 10.2 m/s
90%
01:00
11°
994.8 hPa
30%
8.5°
14
Windvlaag: 10.8 m/s
91%
02:00
10°
992.9 hPa 2.9 mm
82%
8.7°
14
Windvlaag: 10.8 m/s
91%
03:00
10°
990.6 hPa 4.6 mm
82%
8.8°
14
Windvlaag: 11.2 m/s
91%
04:00
10°
Voelt als: 5.6°
988.6 hPa 5.5 mm
82%
8.2°
13
Windvlaag: 10.3 m/s
91%
05:00
Voelt als: 4.4°
989.1 hPa 5.8 mm
82%
6.7°
9
Windvlaag: 8.9 m/s
91%
06:00
Voelt als: 3.7°
990.2 hPa 5.7 mm
80%
5.2°
8
Windvlaag: 2.5 m/s
81%
07:00
Voelt als: 3.6°
991.5 hPa 4.3 mm
30%
3.2°
7
Windvlaag: -1.9 m/s
84%
08:00
Voelt als: 3.4°
992.2 hPa
72%
1.3°
7
Windvlaag: -0 m/s
52%
09:00
Voelt als: 2.9°
993.2 hPa
75%
1.0°
8
Windvlaag: 1.9 m/s
51%
10:00
Voelt als: 3.0°
993.8 hPa 4.2 mm
77%
1.4°
10
Windvlaag: 2.3 m/s
46%
11:00
Voelt als: 2.4°
994.5 hPa 3.1 mm
82%
1.9°
10
Windvlaag: 3.6 m/s
39%
12:00
Voelt als: 2.4°
995.0 hPa
82%
0.6°
11
Windvlaag: 4.2 m/s
60%
13:00
Voelt als: 1.7°
995.6 hPa 3.3 mm
82%
2.6°
11
Windvlaag: 4.9 m/s
49%
14:00
Voelt als: 1.8°
995.7 hPa 3.4 mm
82%
2.2°
12
Windvlaag: 4.8 m/s
25%
15:00
Voelt als: 2.0°
995.7 hPa 4.7 mm
82%
2.2°
12
Windvlaag: 5.7 m/s
19%
16:00
Voelt als: 2.2°
995.7 hPa 3.4 mm
82%
2.8°
12
Windvlaag: 5.8 m/s
47%
17:00
Voelt als: 2.2°
995.8 hPa
79%
1.8°
12
Windvlaag: 5.4 m/s
49%
18:00
Voelt als: 1.9°
996.0 hPa 4.9 mm
82%
1.2°
12
Windvlaag: 5 m/s
35%
19:00
Voelt als: 1.1°
996.6 hPa 3.5 mm
74%
2.3°
12
Windvlaag: 4.9 m/s
50%
20:00
Voelt als: 1.3°
997.6 hPa 4.8 mm
68%
1.6°
11
Windvlaag: 2 m/s
44%
21:00
Voelt als: 2.0°
998.1 hPa
66%
1.8°
11
Windvlaag: 2.2 m/s
56%
22:00
Voelt als: 2.0°
998.5 hPa
66%
1.8°
10
Windvlaag: 3.2 m/s
81%
23:00
Voelt als: 2.8°
998.6 hPa
66%
1.9°
10
Windvlaag: 3.7 m/s
82%
 07:58     19:02    Daglengte: 11:04 Zondag 01 Maa
00:00
Voelt als: 3.0°
998.5 hPa 5.5 mm
71%
2.3°
10
Windvlaag: 4.2 m/s
84%
01:00
Voelt als: 2.7°
998.2 hPa 5.5 mm
72%
2.7°
10
Windvlaag: 4.6 m/s
87%
02:00
Voelt als: 2.7°
997.9 hPa 5.5 mm
74%
3.5°
10
Windvlaag: 4.2 m/s
84%
03:00
Voelt als: 3.0°
997.2 hPa 5.7 mm
72%
4.3°
9
Windvlaag: 4.1 m/s
81%
04:00
Voelt als: 3.4°
996.9 hPa 5.7 mm
94%
4.8°
8
Windvlaag: 4.7 m/s
83%
05:00
Voelt als: 3.9°
995.5 hPa 5.8 mm
97%
4.0°
8
Windvlaag: 5.2 m/s
95%
06:00
Voelt als: 3.7°
994.3 hPa 6.2 mm
92%
5.0°
8
Windvlaag: 5.4 m/s
94%
07:00
Voelt als: 3.8°
992.7 hPa 5.0 mm
95%
6.0°
8
Windvlaag: 5.5 m/s
95%
08:00
Voelt als: 4.4°
990.1 hPa 5.7 mm
100%
6.6°
8
Windvlaag: 5.4 m/s
93%
09:00
Voelt als: 4.3°
988.7 hPa 5.9 mm
100%
6.8°
8
Windvlaag: 3.6 m/s
98%
10:00
Voelt als: 5.3°
988.2 hPa 6.0 mm
100%
5.4°
8
Windvlaag: 1.5 m/s
53%
11:00
Voelt als: 4.8°
988.7 hPa 5.5 mm
100%
5.0°
8
Windvlaag: -2.4 m/s
82%
12:00
Voelt als: 4.0°
989.3 hPa 5.3 mm
100%
5.1°
7
Windvlaag: -1.1 m/s
86%
13:00
Voelt als: 3.1°
990.8 hPa 6.4 mm
100%
5.2°
8
Windvlaag: 0.4 m/s
87%
14:00
Voelt als: 4.1°
992.2 hPa 4.4 mm
100%
5.5°
8
Windvlaag: 1.3 m/s
89%
15:00
Voelt als: 4.5°
992.9 hPa 6.2 mm
100%
4.4°
9
Windvlaag: 2 m/s
52%
16:00
Voelt als: 4.5°
993.4 hPa 6.3 mm
100%
3.4°
9
Windvlaag: 2.3 m/s
49%
17:00
Voelt als: 4.2°
993.9 hPa 6.1 mm
100%
1.8°
8
Windvlaag: 2.1 m/s
48%
18:00
Voelt als: 3.4°
994.1 hPa 6.2 mm
47%
3.9°
8
Windvlaag: 2.1 m/s
58%
19:00
Voelt als: 3.0°
994.5 hPa 6.2 mm
82%
4.1°
7
Windvlaag: 2.4 m/s
70%
20:00
Voelt als: 2.9°
994.9 hPa 6.3 mm
97%
3.8°
7
Windvlaag: 4.7 m/s
81%
21:00
Voelt als: 3.3°
995.0 hPa 6.4 mm
100%
3.6°
6
Windvlaag: 5.7 m/s
72%
22:00
Voelt als: 3.4°
995.2 hPa 6.4 mm
85%
3.3°
6
Windvlaag: 5.6 m/s
68%
23:00
Voelt als: 3.7°
995.4 hPa 10.5 mm
84%
3.1°
5
Windvlaag: 4.4 m/s
70%
 07:56     19:04    Daglengte: 11:08 Maandag 02 Maa
00:00
Voelt als: 3.3°
995.6 hPa
80%
2.8°
5
Windvlaag: 4.8 m/s
60%
01:00
Voelt als: 3.7°
995.7 hPa
86%
2.3°
4
Windvlaag: 1.5 m/s
51%
02:00
Voelt als: 3.3°
995.7 hPa
90%
2.7°
4
Windvlaag: 4.3 m/s
56%
03:00
Voelt als: 3.6°
995.2 hPa
39%
3.3°
4
Windvlaag: 6.5 m/s
64%
04:00
Voelt als: 3.7°
994.6 hPa
21%
3.6°
4
Windvlaag: 8.3 m/s
58%
05:00
Voelt als: 3.5°
994.0 hPa
21%
4.1°
4
Windvlaag: 7.6 m/s
71%
06:00
Voelt als: 3.6°
993.6 hPa
26%
4.4°
4
Windvlaag: 8 m/s
53%
07:00
Voelt als: 3.9°
993.2 hPa
31%
5.1°
4
Windvlaag: 1.2 m/s
75%
Temp/Neerslag /Baro Onweer/Dauwpunt
    Temp Baro Neerslag Dauwpunt Wind Bewolking  
 08:02     18:59    Daglengte: 10:57 Vandaag
10:00
11°
1009.9 hPa 5.0 mm 9.8°
9
89%
13:00
12°
1008.7 hPa 3.8 mm 10.4°
9
91%
16:00
12°
1005.8 hPa   9.9°
9
89%
19:00
11°
1003.0 hPa   9.5°
10
90%
22:00
11°
999.8 hPa   9.1°
12
81%
 08:00     19:01    Daglengte: 11:01 Morgen
01:00
11°
994.8 hPa   8.5°
14
91%
04:00
10°
Voelt als: 5.6°
988.6 hPa 13.0 mm 8.2°
13
91%
07:00
Voelt als: 3.6°
991.5 hPa 15.9 mm 3.2°
7
84%
10:00
Voelt als: 3.0°
993.8 hPa 4.2 mm 1.4°
10
46%
13:00
Voelt als: 1.7°
995.6 hPa 6.4 mm 2.6°
11
49%
16:00
Voelt als: 2.2°
995.7 hPa 11.5 mm 2.8°
12
47%
19:00
Voelt als: 1.1°
996.6 hPa 8.4 mm 2.3°
12
50%
22:00
Voelt als: 2.0°
998.5 hPa 4.8 mm 1.8°
10
81%
 07:58     19:02    Daglengte: 11:04 Zondag 01 Maa
01:00
Voelt als: 2.7°
998.2 hPa 11.0 mm 2.7°
10
87%
04:00
Voelt als: 3.4°
996.9 hPa 16.9 mm 4.8°
8
83%
07:00
Voelt als: 3.8°
992.7 hPa 17.0 mm 6.0°
8
95%
10:00
Voelt als: 5.3°
988.2 hPa 17.5 mm 5.4°
8
53%
13:00
Voelt als: 3.1°
990.8 hPa 17.3 mm 5.2°
8
87%
16:00
Voelt als: 4.5°
993.4 hPa 16.9 mm 3.4°
9
49%
19:00
Voelt als: 3.0°
994.5 hPa 18.5 mm 4.1°
7
70%
22:00
Voelt als: 3.4°
995.2 hPa 19.0 mm 3.3°
6
68%
 07:56     19:04    Daglengte: 11:08 Maandag 02 Maa
01:00
Voelt als: 3.7°
995.7 hPa 10.5 mm 2.3°
4
51%
04:00
Voelt als: 3.7°
994.6 hPa   3.6°
4
58%
07:00
Voelt als: 3.9°
993.2 hPa   5.1°
4
75%
10:00
Voelt als: 3.5°
995.7 hPa 34.5 mm 4.2°
7
61%
13:00
Voelt als: 3.6°
997.2 hPa 35.3 mm 3.8°
8
45%
16:00
Voelt als: 2.9°
1001.1 hPa 35.8 mm 2.3°
8
43%
19:00
Voelt als: 2.1°
1005.0 hPa 36.4 mm 0.7°
7
40%
22:00
Voelt als: 1.9°
1007.7 hPa 36.8 mm 1.3°
6
33%
 07:54     19:06    Daglengte: 11:12 Dinsdag 03 Maa
01:00
Voelt als: 1.8°
1010.4 hPa 37.2 mm 1.8°
6
26%
04:00
Voelt als: 2.2°
1012.2 hPa 37.5 mm 1.6°
4
57%
07:00
Voelt als: 2.9°
1013.9 hPa 37.7 mm 1.4°
2
87%
10:00
Voelt als: 4.7°
1013.8 hPa 37.8 mm 1.1°
4
90%
13:00
Voelt als: 6.5°
1013.6 hPa 38.1 mm 0.3°
5
92%
16:00
Voelt als: 4.5°
1009.3 hPa 40.4 mm 3.5°
7
92%
19:00
Voelt als: 2.8°
1005.0 hPa 44.1 mm 5.6°
9
92%
22:00
Voelt als: 5.9°
1003.2 hPa 47.0 mm 8.2°
8
92%
 07:52     19:07    Daglengte: 11:15 Woensdag 04 Maa
01:00
11°
1001.4 hPa 47.1 mm 10.5°
8
92%
04:00
10°
1001.9 hPa 47.1 mm 8.9°
7
64%
07:00
Voelt als: 6.1°
1002.3 hPa 47.1 mm 7.5°
7
36%
10:00
10°
1003.6 hPa 47.2 mm 7.0°
7
62%
13:00
11°
1004.7 hPa 48.8 mm 6.5°
8
88%
16:00
10°
Voelt als: 6.4°
1005.4 hPa 51.6 mm 5.9°
8
56%
19:00
Voelt als: 4.4°
1006.4 hPa 53.2 mm 5.4°
7
23%
22:00
Voelt als: 3.8°
1009.2 hPa 53.9 mm 3.0°
7
19%
 07:50     19:09    Daglengte: 11:19 Donderdag 05 Maa
01:00
Voelt als: 3.1°
1012.1 hPa 54.9 mm 0.4°
7
16%
04:00
Voelt als: 2.5°
1013.1 hPa 55.8 mm 1.1°
7
37%
07:00
Voelt als: 2.3°
1014.2 hPa 55.9 mm 1.8°
6
59%
10:00
Voelt als: 3.7°
1015.4 hPa 56.0 mm 2.8°
6
41%
13:00
Voelt als: 5.1°
1016.5 hPa 56.5 mm 3.7°
7
23%
16:00
Voelt als: 5.0°
1016.4 hPa 56.7 mm 3.1°
5
24%
19:00
Voelt als: 5.0°
1016.3 hPa 56.9 mm 2.4°
3
24%
22:00
Voelt als: 4.6°
1015.9 hPa 56.9 mm 2.9°
4
34%
 07:48     19:10    Daglengte: 11:22 Vrijdag 06 Maa
01:00
Voelt als: 4.3°
1015.3 hPa 57.0 mm 3.5°
4
43%
04:00
Voelt als: 4.5°
1013.5 hPa 57.1 mm 3.5°
6
67%
07:00
Voelt als: 4.8°
1011.7 hPa 116.0 mm 3.6°
7
91%
13:00
Voelt als: 5.9°
1010.5 hPa 140.5 mm 3.0°
8
91%
19:00
Voelt als: 4.9°
1008.6 hPa 144.8 mm 3.9°
8
91%
 07:46     19:12    Daglengte: 11:26 Zaterdag 07 Maa
01:00
Voelt als: 5.5°
1009.2 hPa 146.0 mm 4.2°
7
91%
07:00
Voelt als: 3.2°
1011.8 hPa 146.4 mm 3.3°
2
92%
13:00
Voelt als: 6.0°
1015.7 hPa 147.9 mm 1.2°
6
24%
19:00
Voelt als: 3.8°
1019.9 hPa 149.0 mm 1.1°
4
10%
 07:44     19:13    Daglengte: 11:29 Zondag 08 Maa
01:00
Voelt als: 2.0°
1025.1 hPa 149.0 mm 1.9°
3
15%
07:00
Voelt als: -1.0°
1028.0 hPa 149.1 mm 0.6°
3
4%
13:00
10°
1024.5 hPa 149.1 mm 3.8°
10
0%
19:00
Voelt als: 2.8°
1024.1 hPa 149.1 mm 1.7°
10
0%
 07:42     19:15    Daglengte: 11:33 Maandag 09 Maa
01:00
Voelt als: 1.3°
1024.6 hPa 149.1 mm 1.9°
8
0%
07:00
Voelt als: 6.3°
1021.6 hPa 0.7 mm 5.4°
4
54%
13:00
Voelt als: 8.0°
1023.4 hPa 0.4 mm 5.8°
3
59%
19:00
Voelt als: 7.9°
1022.9 hPa 0.2 mm 6.2°
3
52%
 07:40     19:16    Daglengte: 11:36 Dinsdag 10 Maa
01:00
Voelt als: 8.0°
1023.5 hPa 0.4 mm 5.4°
2
47%
07:00
Voelt als: 8.1°
1022.4 hPa 0.4 mm 5.5°
2
47%
13:00
10°
Voelt als: 9.7°
1022.8 hPa 0.3 mm 5.7°
1
50%
19:00
Voelt als: 8.2°
1021.7 hPa 0.9 mm 5.4°
2
47%
 07:38     19:18    Daglengte: 11:40 Woensdag 11 Maa
01:00
Voelt als: 8.5°
1022.3 hPa 0.3 mm 5.0°
1
39%
07:00
Voelt als: 7.9°
1021.5 hPa 0.2 mm 4.6°
1
41%
13:00
10°
1022.2 hPa 0.3 mm 4.8°
1
48%
19:00
Voelt als: 8.6°
1021.1 hPa 0.2 mm 5.2°
2
36%
 07:36     19:19    Daglengte: 11:43 Donderdag 12 Maa
01:00
1021.5 hPa 0.2 mm 5.1°
1
39%
07:00
Voelt als: 7.5°
1020.6 hPa 0.5 mm 4.4°
2
47%
13:00
Voelt als: 8.3°
1022.1 hPa 0.6 mm 4.7°
2
44%
19:00
Voelt als: 8.2°
1021.8 hPa 0.5 mm 5.5°
2
42%
 07:34     19:21    Daglengte: 11:47 Vrijdag 13 Maa
01:00
Voelt als: 8.3°
1023.0 hPa 0.5 mm 5.0°
1
47%
07:00
1022.0 hPa 0.6 mm 4.6°
1
40%
13:00
10°
1022.6 hPa 0.4 mm 5.3°
1
40%
19:00
10°
1020.7 hPa 0.6 mm 6.2°
0
38%
 07:32     19:22    Daglengte: 11:50 Zaterdag 14 Maa
01:00
Voelt als: 7.9°
1020.8 hPa 0.6 mm 5.3°
1
46%
07:00
Voelt als: 7.3°
1019.0 hPa 0.5 mm 4.4°
1
47%
  CAPE Lifted Index Hail Supercell Tornado SRH 3km CL BTM PRES CL TOP PRES Swiss DWD icon SMHI TS
 08:02     18:59    Daglengte: 10:57 Vandaag
08:00 1 J/kg 2.8 K 0 % 0 % 0 % 0 m²/s² 0 0 2.98 61
09:00 1 J/kg 3.3 K 0 % 0 % 0 % 0 m²/s² 0 0 3.54 53
10:00 2 J/kg 2.4 K 0 % 0 % 0 % 0 m²/s² 0 0 2.73 3
11:00 3 J/kg 1.2 K 0 % 0 % 0 % 0 m²/s² 0 0 1.41 3
12:00 4 J/kg 0.8 K 0 % 0 % 0 % 0 m²/s² 0 0 2.36 3
13:00 5 J/kg 0.3 K 0 % 0 % 0 % 0 m²/s² 0 0 0.54 3
14:00 4 J/kg 4.0 K 0 % 0 % 0 % 0 m²/s² 0 0 4.75 3
15:00 6 J/kg 3.8 K 0 % 0 % 0 % 0 m²/s² 0 0 4.79 3
16:00 8 J/kg 4.2 K 0 % 0 % 0 % 0 m²/s² 0 0 5.94 3
17:00 10 J/kg 4.1 K 0 % 0 % 0 % 0 m²/s² 0 0 7.91 3
18:00 7 J/kg 4.1 K 0 % 0 % 0 % 0 m²/s² 0 0 10.4 3
19:00 9 J/kg 4.2 K 0 % 0 % 0 % 0 m²/s² 0 0 11.61 3
20:00 15 J/kg 4.4 K 0 % 0 % 0 % 0 m²/s² 0 0 12.74 3
21:00 20 J/kg 4.6 K 0 % 0 % 0 % 0 m²/s² 0 0 12.04 3
22:00 22 J/kg 4.9 K 0 % 0 % 0 % 0 m²/s² 0 0 9.97 3
23:00 11 J/kg 5.0 K 0 % 0 % 0 % 0 m²/s² 0 0 5.33 3
 08:00     19:01    Daglengte: 11:01 Morgen
00:00 7 J/kg 4.5 K 0 % 0 % 0 % 0 m²/s² 0 0 4.74 3
01:00 2 J/kg 3.3 K 0 % 0 % 0 % 0 m²/s² 0 0 3.51 3
02:00 2 J/kg 3.5 K 0 % 0 % 0 % 0 m²/s² 0 0 3.74 61
03:00 0 J/kg 3.4 K 0 % 0 % 0 % 0 m²/s² 0 0 3.64 63
04:00 29 J/kg 2.3 K 0 % 0 % 0 % 0 m²/s² 0 0 2.54 63
05:00 46 J/kg 4.2 K 0 % 0 % 0 % 0 m²/s² 0 0 4.65 61
06:00 57 J/kg 4.4 K 0 % 0 % 0 % 0 m²/s² 0 0 4.85 2
07:00 44 J/kg 5.3 K 0 % 0 % 0 % 0 m²/s² 0 0 5.78 3
08:00 72 J/kg 5.3 K 0 % 0 % 0 % 0 m²/s² 0 0 6.05 3
09:00 141 J/kg 7.4 K 0 % 0 % 0 % 0 m²/s² 0 0 9.53 3
10:00 209 J/kg 7.3 K 0 % 0 % 0 % 0 m²/s² 0 0 9.64 3
11:00 85 J/kg 8.6 K 0 % 0 % 0 % 0 m²/s² 0 0 10.85 80
12:00 185 J/kg 7.3 K 0 % 0 % 0 % 0 m²/s² 0 0 7.99 80
13:00 1 J/kg 8.8 K 0 % 0 % 0 % 0 m²/s² 0 0 9.37 80
14:00 227 J/kg 7.9 K 0 % 0 % 0 % 0 m²/s² 0 0 8.5 80
15:00 144 J/kg 9.2 K 0 % 0 % 0 % 0 m²/s² 0 0 10.61 2
16:00 28 J/kg 11.0 K 0 % 0 % 0 % 0 m²/s² 0 0 11.45 2
17:00 186 J/kg 8.9 K 0 % 0 % 0 % 0 m²/s² 0 0 9.89 3
18:00 131 J/kg 9.6 K 0 % 0 % 0 % 0 m²/s² 0 0 10.47 80
19:00 35 J/kg 10.3 K 0 % 0 % 0 % 0 m²/s² 0 0 11.29 3
20:00 119 J/kg 9.9 K 0 % 0 % 0 % 0 m²/s² 0 0 12.84 80
21:00 57 J/kg 9.4 K 0 % 0 % 0 % 0 m²/s² 0 0 10.69 3
22:00 1 J/kg 8.1 K 0 % 0 % 0 % 0 m²/s² 0 0 8.97 3
23:00 55 J/kg 5.9 K 0 % 0 % 0 % 0 m²/s² 0 0 7.22 3
 07:58     19:02    Daglengte: 11:04 Zondag 01 Maa
00:00 175 J/kg 3.9 K 0 % 0 % 0 % 0 m²/s² 0 0 6.48 80
01:00 194 J/kg 2.7 K 0 % 0 % 0 % 0 m²/s² 0 0 3.87 3
02:00 207 J/kg 2.0 K 0 % 0 % 0 % 0 m²/s² 0 0 2.54 80
03:00 161 J/kg 1.4 K 0 % 0 % 0 % 0 m²/s² 0 0 2.18 80
04:00 144 J/kg 1.4 K 0 % 0 % 0 % 0 m²/s² 0 0 2 80
05:00 151 J/kg 1.8 K 0 % 0 % 0 % 0 m²/s² 0 0 2.37 80
06:00 167 J/kg 0.7 K 0 % 0 % 0 % 0 m²/s² 0 0 1.24 80
07:00 77 J/kg 1.3 K 0 % 0 % 0 % 0 m²/s² 0 0 2.08 80
08:00 103 J/kg 1.6 K 0 % 0 % 0 % 0 m²/s² 0 0 2.53 80
09:00 142 J/kg 1.6 K 0 % 0 % 0 % 0 m²/s² 0 0 2.11 63
10:00 108 J/kg 2.2 K 0 % 0 % 0 % 0 m²/s² 0 0 3.55 63
11:00 131 J/kg 2.5 K 0 % 0 % 0 % 0 m²/s² 0 0 3.4 63
12:00 57 J/kg 3.1 K 0 % 0 % 0 % 0 m²/s² 0 0 3.52 80
13:00 130 J/kg 1.8 K 0 % 0 % 0 % 0 m²/s² 0 0 2.43 61
14:00 251 J/kg 0.5 K 0 % 0 % 0 % 0 m²/s² 0 0 1.58 61
15:00 185 J/kg 0.6 K 0 % 0 % 0 % 0 m²/s² 0 0 1.86 3
16:00 256 J/kg -0.2 K 0 % 0 % 0 % 0 m²/s² 0 0 1.54 3
17:00 350 J/kg -0.9 K 0 % 0 % 0 % 0 m²/s² 0 0 0.84 2
18:00 299 J/kg -0.4 K 0 % 0 % 0 % 0 m²/s² 0 0 1.82 3
19:00 263 J/kg 0.2 K 0 % 0 % 0 % 0 m²/s² 0 0 2.3 2
20:00 302 J/kg -0.5 K 0 % 0 % 0 % 0 m²/s² 0 0 1.75 80
21:00 210 J/kg -0.5 K 0 % 0 % 0 % 0 m²/s² 0 0 2.32 80
22:00 197 J/kg 0.0 K 0 % 0 % 0 % 0 m²/s² 0 0 0.87 80
23:00 181 J/kg 0.7 K 0 % 0 % 0 % 0 m²/s² 0 0 1.15 3
 07:56     19:04    Daglengte: 11:08 Maandag 02 Maa
00:00 37 J/kg 2.6 K 0 % 0 % 0 % 0 m²/s² 0 0 3.02 2
01:00 0 J/kg 0.0 K 0 % 0 % 0 % 0 m²/s² 0 0 1.26 2
02:00 0 J/kg 0.3 K 0 % 0 % 0 % 0 m²/s² 0 0 2.25 2
03:00 45 J/kg 0.4 K 0 % 0 % 0 % 0 m²/s² 0 0 2.68 2
04:00 10 J/kg 0.9 K 0 % 0 % 0 % 0 m²/s² 0 0 2.67 3
05:00 55 J/kg 1.4 K 0 % 0 % 0 % 0 m²/s² 0 0 2.03 3
06:00 33 J/kg 0.8 K 0 % 0 % 0 % 0 m²/s² 0 0 1.85 2
07:00 225 J/kg -0.6 K 0 % 0 % 0 % 0 m²/s² 0 0 0 1
Temp Baro Wind Neerslag
  EWN Forecast EWN WRFDA DWD ICON FMI HIRLAM MET Norway GFS
 08:02     18:59    Daglengte: 10:57 Vandaag
10:00 11.1° 1009.9 hPa 8.9 m/s 5.0 mm 10.5° 1008.4 hPa 9.4 m/s 11.0 mm 11.4° 1009.9 hPa 7.7 m/s 3.5 mm 11.6° 1010.3 hPa 9.5 m/s 0.0 mm 11.1° 1010.0 hPa 8.6 m/s 11.0° 1009.2 hPa 10.5 m/s
13:00 11.6° 1008.7 hPa 9.5 m/s 3.8 mm 10.9° 1007.5 hPa 9.0 m/s 14.3 mm 11.8° 1009.2 hPa 9.5 m/s 0.1 mm 11.9° 1008.7 hPa 11.0 m/s 0.0 mm 11.7° 1008.6 hPa 9.1 m/s 11.7° 1008.6 hPa 11.6 m/s
16:00 11.5° 1005.8 hPa 9.2 m/s 0.0 mm 10.9° 1004.2 hPa 9.0 m/s 15.5 mm 12.2° 1006.3 hPa 9.0 m/s 0.0 mm 11.9° 1005.5 hPa 11.2 m/s 0.0 mm 11.5° 1005.9 hPa 8.5 m/s 11.3° 1005.5 hPa 11.8 m/s
19:00 11.1° 1003.0 hPa 10.4 m/s 0.0 mm 10.6° 1001.4 hPa 11.4 m/s 16.4 mm 11.4° 1003.6 hPa 9.5 m/s 0.0 mm 11.8° 1002.5 hPa 12.6 m/s 0.0 mm 11.1° 1003.1 hPa 10.0 m/s 11.3° 1003.0 hPa 12.6 m/s
22:00 11.0° 999.8 hPa 11.7 m/s 0.0 mm 10.6° 997.2 hPa 12.8 m/s 17.4 mm 11.2° 1000.1 hPa 11.1 m/s 0.0 mm 11.9° 999.2 hPa 14.6 m/s 0.0 mm 10.9° 1000.0 hPa 11.2 m/s 11.4° 999.5 hPa 14.6 m/s
 08:00     19:01    Daglengte: 11:01 Morgen
01:00 10.8° 994.8 hPa 13.5 m/s 0.0 mm 10.4° 992.4 hPa 14.5 m/s 21.7 mm 11.2° 995.2 hPa 12.3 m/s 0.0 mm 11.5° 993.2 hPa 17.3 m/s 0.0 mm 10.7° 995.7 hPa 12.7 m/s 11.2° 994.1 hPa 17.6 m/s
04:00 9.9° 988.6 hPa 12.8 m/s 13.0 mm 9.9° 985.4 hPa 12.2 m/s 41.2 mm 10.6° 989.9 hPa 12.2 m/s 9.5 mm 9.0° 990.2 hPa 10.2 m/s 0.0 mm 10.1° 988.6 hPa 13.1 m/s 10.5° 988.9 hPa 14.1 m/s
07:00 7.4° 991.5 hPa 7.0 m/s 15.9 mm 7.1° 989.5 hPa 8.7 m/s 59.1 mm 8.3° 993.0 hPa 6.5 m/s 0.7 mm 7.1° 991.4 hPa 4.1 m/s 0.0 mm 7.3° 991.6 hPa 7.1 m/s 7.4° 991.5 hPa 12.3 m/s
10:00 7.5° 993.8 hPa 9.6 m/s 4.2 mm 6.4° 991.7 hPa 10.2 m/s 60.4 mm 7.6° 995.5 hPa 9.8 m/s 0.4 mm 7.9° 991.3 hPa 7.5 m/s 0.0 mm 7.2° 994.4 hPa 10.4 m/s 6.7° 994.5 hPa 12.1 m/s
13:00 6.8° 995.6 hPa 11.1 m/s 6.4 mm 5.1° 993.3 hPa 14.1 m/s 61.9 mm 6.8° 997.4 hPa 10.7 m/s 1.0 mm 6.9° 993.6 hPa 11.4 m/s 0.0 mm 6.6° 996.0 hPa 10.6 m/s 7.4° 996.3 hPa 15.2 m/s
16:00 7.3° 995.7 hPa 11.8 m/s 11.5 mm 4.8° 994.5 hPa 14.8 m/s 65.6 mm 7.3° 997.8 hPa 10.7 m/s 0.5 mm 7.3° 994.6 hPa 14.6 m/s 0.0 mm 7.3° 996.6 hPa 11.3 m/s 6.9° 996.7 hPa 13.8 m/s
19:00 6.4° 996.6 hPa 11.7 m/s 8.4 mm 5.4° 993.9 hPa 11.0 m/s 68.9 mm 6.3° 999.2 hPa 10.6 m/s 0.4 mm 6.4° 995.0 hPa 13.8 m/s 0.0 mm 6.2° 997.9 hPa 12.0 m/s 7.1° 997.1 hPa 12.1 m/s
22:00 6.9° 998.5 hPa 10.4 m/s 4.8 mm 3.7° 995.7 hPa 8.6 m/s 72.7 mm 7.0° 1000.6 hPa 10.2 m/s 0.2 mm 7.7° 995.4 hPa 15.6 m/s 0.0 mm 6.9° 999.8 hPa 9.4 m/s 6.6° 998.9 hPa 12.6 m/s
 07:58     19:02    Daglengte: 11:04 Zondag 01 Maa
01:00 7.3° 998.2 hPa 9.5 m/s 11.0 mm 6.5° 995.7 hPa 9.1 m/s 78.7 mm 7.2° 1000.9 hPa 9.2 m/s 0.3 mm 7.7° 995.6 hPa 13.1 m/s 0.0 mm 7.1° 999.6 hPa 8.7 m/s 6.8° 999.4 hPa 12.0 m/s
04:00 7.5° 996.9 hPa 7.9 m/s 16.9 mm 7.3° 993.9 hPa 8.5 m/s 81.0 mm 7.6° 999.0 hPa 9.2 m/s 0.6 mm 7.4° 997.2 hPa 7.4 m/s 6.8° 998.3 hPa 11.5 m/s
07:00 7.8° 992.7 hPa 8.1 m/s 17.0 mm 6.5° 991.8 hPa 6.6 m/s 83.0 mm 8.2° 995.7 hPa 7.0 m/s 0.6 mm 7.7° 992.8 hPa 8.9 m/s 7.3° 996.5 hPa 9.2 m/s
10:00 8.9° 988.2 hPa 7.9 m/s 17.5 mm 7.7° 991.4 hPa 6.9 m/s 85.1 mm 8.1° 989.9 hPa 3.6 m/s 9.4 mm 9.8° 987.3 hPa 10.4 m/s 7.9° 994.8 hPa 6.9 m/s
13:00 7.3° 990.8 hPa 8.3 m/s 17.3 mm 7.2° 993.4 hPa 6.9 m/s 86.2 mm 7.7° 991.3 hPa 8.0 m/s 6.3 mm 6.7° 987.4 hPa 9.2 m/s 9.1° 995.7 hPa 9.1 m/s
16:00 8.4° 993.4 hPa 8.6 m/s 16.9 mm 8.7° 993.4 hPa 9.0 m/s 87.0 mm 8.5° 995.1 hPa 8.5 m/s 0.5 mm 8.1° 992.2 hPa 8.3 m/s 9.5° 994.9 hPa 8.6 m/s
19:00 7.0° 994.5 hPa 7.3 m/s 18.5 mm 7.2° 993.7 hPa 6.4 m/s 88.9 mm 7.3° 996.5 hPa 7.6 m/s 0.1 mm 5.8° 994.3 hPa 7.4 m/s 7.4° 991.8 hPa 10.0 m/s
22:00 6.9° 995.2 hPa 5.5 m/s 19.0 mm 7.7° 993.1 hPa 5.4 m/s 90.9 mm 6.8° 996.6 hPa 6.7 m/s 0.5 mm 6.0° 995.5 hPa 5.5 m/s 7.9° 989.9 hPa 11.2 m/s
 07:56     19:04    Daglengte: 11:08 Maandag 02 Maa
01:00 6.2° 995.7 hPa 3.5 m/s 10.5 mm 3.0° 990.9 hPa 0.7 m/s 106.2 mm 6.9° 997.1 hPa 5.8 m/s 0.1 mm 6.3° 996.8 hPa 3.6 m/s 7.4° 990.3 hPa 10.1 m/s
04:00 6.3° 994.6 hPa 3.5 m/s 0.0 mm 3.4° 990.5 hPa 2.5 m/s 121.3 mm 6.6° 996.6 hPa 2.6 m/s 0.0 mm 6.6° 994.7 hPa 4.5 m/s 6.8° 993.5 hPa 10.5 m/s
07:00 6.7° 993.2 hPa 4.0 m/s 0.0 mm 4.5° 991.8 hPa 2.9 m/s 122.2 mm 6.9° 996.9 hPa 2.4 m/s 0.0 mm 6.9° 992.6 hPa 5.3 m/s 6.0° 995.4 hPa 7.5 m/s
10:00 7.3° 995.7 hPa 7.1 m/s 34.5 mm 7.4° 995.5 hPa 7.1 m/s 7.2° 997.3 hPa 7.4 m/s 34.5 mm
13:00 7.6° 997.2 hPa 8.1 m/s 35.3 mm 7.6° 997.0 hPa 8.0 m/s 8.1° 999.7 hPa 8.9 m/s 35.3 mm
16:00 7.0° 1001.1 hPa 7.7 m/s 35.8 mm 6.9° 1001.0 hPa 7.5 m/s 8.1° 1001.3 hPa 9.3 m/s 35.8 mm
19:00 6.3° 1005.0 hPa 7.2 m/s 36.4 mm 6.3° 1005.1 hPa 7.0 m/s 6.5° 1004.1 hPa 9.6 m/s 36.4 mm
22:00 6.0° 1007.7 hPa 6.5 m/s 36.8 mm 5.9° 1007.9 hPa 6.2 m/s 6.5° 1006.6 hPa 10.0 m/s 36.8 mm
 07:54     19:06    Daglengte: 11:12 Dinsdag 03 Maa
01:00 5.6° 1010.4 hPa 5.6 m/s 37.2 mm 5.5° 1010.6 hPa 5.3 m/s 6.4° 1008.5 hPa 8.4 m/s 37.2 mm
04:00 5.3° 1012.2 hPa 4.1 m/s 37.5 mm 5.2° 1012.5 hPa 3.8 m/s 6.6° 1009.3 hPa 8.1 m/s 37.5 mm
07:00 5.0° 1013.9 hPa 2.5 m/s 37.7 mm 4.9° 1014.3 hPa 2.2 m/s 6.3° 1010.0 hPa 5.7 m/s 37.7 mm
10:00 7.1° 1013.8 hPa 3.7 m/s 37.8 mm 7.1° 1014.2 hPa 3.6 m/s 7.7° 1010.0 hPa 4.4 m/s 37.8 mm
13:00 9.1° 1013.6 hPa 5.0 m/s 38.1 mm 9.3° 1014.1 hPa 5.0 m/s 7.3° 1008.4 hPa 5.4 m/s 38.1 mm
16:00 8.1° 1009.3 hPa 7.1 m/s 40.4 mm 8.3° 1009.8 hPa 7.1 m/s 6.3° 1004.2 hPa 7.3 m/s 40.4 mm
19:00 7.2° 1005.0 hPa 9.1 m/s 44.1 mm 7.3° 1005.5 hPa 9.2 m/s 6.4° 1000.0 hPa 8.2 m/s 44.1 mm
22:00 9.4° 1003.2 hPa 8.1 m/s 47.0 mm 9.4° 1003.6 hPa 8.6 m/s 9.0° 998.6 hPa 2.2 m/s 47.0 mm
 07:52     19:07    Daglengte: 11:15 Woensdag 04 Maa
01:00 11.3° 1001.4 hPa 7.6 m/s 47.1 mm 11.6° 1001.7 hPa 8.0 m/s 8.6° 998.6 hPa 3.5 m/s 47.1 mm
04:00 10.3° 1001.9 hPa 7.4 m/s 47.1 mm 10.6° 1002.1 hPa 8.0 m/s 6.5° 999.4 hPa 0.9 m/s 47.1 mm
07:00 9.4° 1002.3 hPa 7.4 m/s 47.1 mm 9.7° 1002.5 hPa 8.0 m/s 6.5° 1000.4 hPa 0.6 m/s 47.1 mm
10:00 10.3° 1003.6 hPa 7.3 m/s 47.2 mm 10.4° 1003.9 hPa 7.8 m/s 9.1° 1000.0 hPa 2.0 m/s 47.2 mm
13:00 11.1° 1004.7 hPa 7.5 m/s 48.8 mm 11.1° 1005.3 hPa 7.6 m/s 10.5° 997.6 hPa 6.6 m/s 48.8 mm
16:00 9.7° 1005.4 hPa 7.7 m/s 51.6 mm 9.6° 1006.5 hPa 7.4 m/s 11.6° 993.5 hPa 11.0 m/s 51.6 mm
19:00 8.2° 1006.4 hPa 7.4 m/s 53.2 mm 8.0° 1007.7 hPa 7.2 m/s 9.9° 992.1 hPa 9.8 m/s 53.2 mm
22:00 7.6° 1009.2 hPa 7.1 m/s 53.9 mm 7.4° 1010.8 hPa 7.0 m/s 9.4° 992.3 hPa 8.9 m/s 53.9 mm
 07:50     19:09    Daglengte: 11:19 Donderdag 05 Maa
01:00 6.9° 1012.1 hPa 6.8 m/s 54.9 mm 6.8° 1013.8 hPa 6.7 m/s 8.6° 993.6 hPa 8.1 m/s 54.9 mm
04:00 6.5° 1013.1 hPa 6.9 m/s 55.8 mm 6.5° 1014.4 hPa 6.3 m/s 7.0° 998.9 hPa 13.8 m/s 55.8 mm
07:00 6.2° 1014.2 hPa 6.4 m/s 55.9 mm 6.2° 1015.0 hPa 5.9 m/s 6.3° 1005.0 hPa 12.0 m/s 55.9 mm
10:00 7.4° 1015.4 hPa 6.5 m/s 56.0 mm 7.4° 1015.9 hPa 6.1 m/s 6.9° 1009.8 hPa 10.8 m/s 56.0 mm
13:00 8.5° 1016.5 hPa 6.7 m/s 56.5 mm 8.6° 1016.8 hPa 6.3 m/s 7.9° 1013.2 hPa 11.3 m/s 56.5 mm
16:00 7.9° 1016.4 hPa 5.1 m/s 56.7 mm 7.9° 1016.6 hPa 4.7 m/s 7.9° 1014.1 hPa 10.0 m/s 56.7 mm
19:00 7.3° 1016.3 hPa 3.4 m/s 56.9 mm 7.3° 1016.4 hPa 3.1 m/s 6.8° 1015.2 hPa 7.0 m/s 56.9 mm
22:00 7.1° 1015.9 hPa 3.7 m/s 56.9 mm 7.2° 1015.9 hPa 3.7 m/s 5.8° 1016.1 hPa 4.0 m/s 56.9 mm
 07:48     19:10    Daglengte: 11:22 Vrijdag 06 Maa
01:00 7.1° 1015.3 hPa 4.4 m/s 57.0 mm 7.1° 1015.4 hPa 4.3 m/s 7.0° 1014.5 hPa 4.9 m/s 57.0 mm
04:00 7.7° 1013.5 hPa 5.6 m/s 57.1 mm 7.7° 1013.8 hPa 5.4 m/s 7.9° 1010.3 hPa 7.6 m/s 57.1 mm
07:00 8.3° 1011.7 hPa 7.0 m/s 58.9 mm 8.3° 1012.2 hPa 6.6 m/s 8.2° 1006.2 hPa 11.0 m/s 58.9 mm
13:00 9.4° 1010.5 hPa 8.2 m/s 71.1 mm 9.5° 1011.2 hPa 8.6 m/s 8.7° 1003.3 hPa 4.1 m/s 71.1 mm
19:00 8.6° 1008.6 hPa 8.1 m/s 72.7 mm 8.8° 1009.0 hPa 8.2 m/s 6.8° 1004.6 hPa 6.7 m/s 72.7 mm
 07:46     19:12    Daglengte: 11:26 Zaterdag 07 Maa
01:00 8.8° 1009.2 hPa 6.6 m/s 73.0 mm 9.1° 1009.2 hPa 6.7 m/s 5.3° 1008.8 hPa 5.7 m/s 73.0 mm
07:00 4.8° 1011.8 hPa 1.9 m/s 73.2 mm 4.8° 1011.8 hPa 1.7 m/s 4.9° 1011.3 hPa 4.2 m/s 73.2 mm
13:00 9.0° 1015.7 hPa 6.1 m/s 74.3 mm 9.1° 1015.8 hPa 5.9 m/s 8.3° 1014.8 hPa 8.0 m/s 74.3 mm
19:00 6.4° 1019.9 hPa 3.6 m/s 74.5 mm 6.4° 1020.1 hPa 3.4 m/s 6.2° 1017.2 hPa 5.9 m/s 74.5 mm
 07:44     19:13    Daglengte: 11:29 Zondag 08 Maa
01:00 4.7° 1025.1 hPa 3.2 m/s 74.5 mm 4.6° 1025.5 hPa 2.8 m/s 6.0° 1021.0 hPa 7.5 m/s 74.5 mm
07:00 2.2° 1028.0 hPa 3.2 m/s 74.5 mm 1.8° 1028.5 hPa 2.7 m/s 6.7° 1022.2 hPa 9.3 m/s 74.5 mm
13:00 10.4° 1024.5 hPa 9.9 m/s 74.5 mm 10.4° 1024.5 hPa 9.9 m/s 74.5 mm
19:00 7.4° 1024.1 hPa 9.8 m/s 74.5 mm 7.4° 1024.1 hPa 9.8 m/s 74.5 mm
 07:42     19:15    Daglengte: 11:33 Maandag 09 Maa
01:00 5.8° 1024.6 hPa 7.8 m/s 74.5 mm 5.8° 1024.6 hPa 7.8 m/s 74.5 mm
07:00 8.6° 1021.6 hPa 3.9 m/s 0.7 mm
13:00 9.4° 1023.4 hPa 2.7 m/s 0.4 mm
19:00 9.4° 1022.9 hPa 2.9 m/s 0.2 mm
 07:40     19:16    Daglengte: 11:36 Dinsdag 10 Maa
01:00 8.8° 1023.5 hPa 1.7 m/s 0.4 mm
07:00 8.8° 1022.4 hPa 1.6 m/s 0.4 mm
13:00 9.9° 1022.8 hPa 1.3 m/s 0.3 mm
19:00 9.4° 1021.7 hPa 2.4 m/s 0.9 mm
 07:38     19:18    Daglengte: 11:40 Woensdag 11 Maa
01:00 8.8° 1022.3 hPa 1.3 m/s 0.3 mm
07:00 8.3° 1021.5 hPa 1.3 m/s 0.2 mm
13:00 9.6° 1022.2 hPa 0.9 m/s 0.3 mm
19:00 9.3° 1021.1 hPa 1.8 m/s 0.2 mm
 07:36     19:19    Daglengte: 11:43 Donderdag 12 Maa
01:00 8.9° 1021.5 hPa 0.9 m/s 0.2 mm
07:00 8.2° 1020.6 hPa 1.6 m/s 0.5 mm
13:00 9.3° 1022.1 hPa 2.1 m/s 0.6 mm
19:00 9.3° 1021.8 hPa 2.2 m/s 0.5 mm
 07:34     19:21    Daglengte: 11:47 Vrijdag 13 Maa
01:00 8.6° 1023.0 hPa 1.3 m/s 0.5 mm
07:00 8.2° 1022.0 hPa 0.9 m/s 0.6 mm
13:00 9.7° 1022.6 hPa 0.9 m/s 0.4 mm
19:00 9.7° 1020.7 hPa 0.2 m/s 0.6 mm
 07:32     19:22    Daglengte: 11:50 Zaterdag 14 Maa
01:00 8.5° 1020.8 hPa 1.5 m/s 0.6 mm
07:00 7.9° 1019.0 hPa 1.5 m/s 0.5 mm
FMI Hirlam - 7.5 km EWN WRFDA - 12 km DWD ICON - 7 km GFS - 25 km Basiskaart






























































Updatetijd (Europe/Amsterdam) Resolutie Lengte Stap
FMI Hirlam 06:15, 12:15, 18:15, 00:15 7.5 km 49h 1h
EWN WRFDA 02:15, 08:15, 14:15, 20:15 12 km 73h 1h
DWD ICON 04:45, 10:45, 16:45, 22:45 7 km 75h 1h
GFS 07:15, 13:15, 19:15, 01:15 25 km 237h 3h
30+ mm
25-30 mm
20-25 mm
15-20 mm
10-15 mm
6-10 mm
4-6 mm
2-4 mm
1-2 mm
0.5-1 mm
0.2-0.5 mm
0.1-0.2 mm
30+ mm
25-30 mm
20-25 mm
15-20 mm
10-15 mm
6-10 mm
4-6 mm
2-4 mm
1-2 mm
0.5-1 mm
0.2-0.5 mm
0.1-0.2 mm
Sneeuwval
Natte sneeuw
Hagel
Vorst
30+ mm
25-30 mm
20-25 mm
15-20 mm
10-15 mm
6-10 mm
4-6 mm
2-4 mm
1-2 mm
0.5-1 mm
0.2-0.5 mm
0.1-0.2 mm
Sneeuwval
Natte sneeuw
Hagel
Vorst
Onweer
50 mm
40 mm
30 mm
26 mm
22 mm
18 mm
14 mm
10 mm
9 mm
8 mm
7 mm
6 mm
5 mm
4.5 mm
4 mm
3.5 mm
3 mm
2.5 mm
2 mm
1.5 mm
1 mm
0.8 mm
0.6 mm
0.4 mm
0.2 mm
0.05 mm